Home   Weather   Lübeck   Past weeks
Flag for Germany

Past Weather in Lübeck, Schleswig-Holstein, Germany — Yesterday and Last 2 Weeks

Now
57 °F

Scattered clouds.


Feels Like: 55 °F
Forecast: 55 / 43 °F
Wind: 10 mph from West

Location: Luebeck-Blankensee

Current Time: May 27, 2019 at 8:42:02 am

Latest Report: May 27, 2019 at 7:50 am


Visibility: N/A

Pressure: 29.68 "Hg

Humidity: 82%

Dew Point: 52 °F

Location of LübeckLocation

Past Weather in Lübeck — Graph

°F

Lübeck Temperature Yesterday

Maximum temperature yesterday: 66 °F (at 6:50 pm)
Minimum temperature yesterday: 50 °F (at 7:20 am)
Average temperature yesterday: 59 °F

High & Low Weather Summary for the Past Weeks

 TemperatureHumidityPressure
High72 °F (May 18, 4:20 pm)100% (May 17, 7:20 am)30.63 "Hg (May 17, 7:20 am)
Low39 °F (May 13, 6:50 am)28% (May 15, 6:20 pm)29.68 "Hg (May 20, 3:50 pm)
Average57 °F67%30.03 "Hg
* Reported May 12 7:20 am — May 27 7:20 am, Lübeck. Weather by CustomWeather, © 2019

Note: Actual official high and low records may vary slightly from our data, if they occured in-between our weather recording intervals... More about our weather records

Advertising

Lübeck Weather History for the Previous 24 Hours

Scroll right to see more
 ConditionsComfort  
Time TempWeatherWind HumidityBarometerVisibility
7:20 am
Mon, May 27
55 °FScattered clouds.10 mph88%29.68 "HgN/A
8:50 pm
Sun, May 26
59 °FLight rain. Partly sunny.15 mph94%29.71 "Hg4 mi
7:50 pm66 °FSprinkles. Partly sunny.21 mph64%29.71 "HgN/A
7:20 pm66 °FPassing clouds.10 mph64%29.71 "HgN/A
6:50 pm66 °FPassing clouds.5 mph68%29.71 "HgN/A
6:20 pm64 °FScattered clouds.3 mph78%29.74 "HgN/A
5:50 pm63 °FPartly sunny.3 mph83%29.74 "Hg6 mi
5:20 pm63 °FPartly sunny.2 mph83%29.74 "Hg6 mi
4:50 pm63 °FPartly sunny.2 mph77%29.74 "HgN/A
4:20 pm63 °FPartly sunny.5 mph77%29.77 "HgN/A
3:50 pm61 °FPartly sunny.5 mph83%29.77 "HgN/A
3:20 pm59 °FPartly sunny.9 mph88%29.77 "Hg5 mi
2:50 pm59 °FDrizzle. Partly sunny.14 mph88%29.77 "Hg5 mi
2:20 pm59 °FDrizzle. Partly sunny.15 mph88%29.77 "Hg5 mi
1:50 pm59 °FPartly sunny.13 mph82%29.77 "Hg6 mi
1:20 pm57 °FDrizzle. Mostly cloudy.17 mph88%29.80 "Hg4 mi
12:50 pm57 °FMore clouds than sun.16 mph82%29.80 "HgN/A
12:20 pm57 °FLight rain. Overcast.21 mph77%29.80 "HgN/A
11:50 am59 °FLight rain. Overcast.16 mph68%29.80 "HgN/A
11:20 am59 °FPartly sunny.16 mph68%29.80 "HgN/A
10:50 am59 °FPartly sunny.16 mph63%29.80 "HgN/A
10:20 am59 °FPartly sunny.14 mph68%29.83 "HgN/A
9:50 am57 °FSunny.15 mph72%29.83 "Hg10 mi
9:20 am55 °FSunny.12 mph77%29.83 "Hg10 mi
8:50 am54 °FPassing clouds.10 mph77%29.83 "HgN/A
8:20 am52 °FPassing clouds.9 mph82%29.86 "HgN/A
Weather by CustomWeather, © 2019

See weather overview